Time,TemperatureF,DewpointF,PressureIn,WindDirection,WindDirectionDegrees,WindSpeedMPH,WindSpeedGustMPH,Humidity,HourlyPrecipIn,Conditions,Clouds,dailyrainin,SoftwareType,DateUTC
2013-06-29 00:01:00,71.8,49.3,29.06,East,82,0.0,0.0,45,0.00,,SKC,0.00,VWS V14.01,2013-06-29 04:01:00,
2013-06-29 00:06:00,71.6,49.2,29.06,East,82,0.0,0.0,45,0.00,,SKC,0.00,VWS V14.01,2013-06-29 04:06:00,
2013-06-29 00:11:00,71.6,49.8,29.06,East,82,0.0,0.0,46,0.00,,SKC,0.00,VWS V14.01,2013-06-29 04:11:00,
2013-06-29 00:16:00,71.4,49.6,29.06,East,82,0.0,0.0,46,0.00,,SKC,0.00,VWS V14.01,2013-06-29 04:16:00,
2013-06-29 00:21:00,71.2,50.0,29.06,East,82,0.0,0.0,47,0.00,,SKC,0.00,VWS V14.01,2013-06-29 04:21:00,
2013-06-29 00:26:00,71.1,51.0,29.06,East,82,0.0,0.0,49,0.00,,SKC,0.00,VWS V14.01,2013-06-29 04:26:00,
2013-06-29 00:31:00,70.9,50.8,29.06,East,82,0.0,0.0,49,0.00,,SKC,0.00,VWS V14.01,2013-06-29 04:31:00,
2013-06-29 00:36:00,70.7,50.1,29.06,East,82,0.0,0.0,48,0.00,,SKC,0.00,VWS V14.01,2013-06-29 04:36:00,
2013-06-29 00:41:00,70.5,50.5,29.06,East,82,0.0,0.0,49,0.00,,SKC,0.00,VWS V14.01,2013-06-29 04:41:00,
2013-06-29 00:46:00,70.5,50.5,29.06,East,82,0.0,0.0,49,0.00,,SKC,0.00,VWS V14.01,2013-06-29 04:46:00,
2013-06-29 00:51:00,70.3,50.8,29.06,East,82,0.0,0.0,50,0.00,,SKC,0.00,VWS V14.01,2013-06-29 04:51:00,
2013-06-29 00:56:00,70.2,50.7,29.06,East,82,0.0,0.0,50,0.00,,SKC,0.00,VWS V14.01,2013-06-29 04:56:00,
2013-06-29 01:01:00,70.2,51.2,29.06,East,82,0.0,0.0,51,0.00,,SKC,0.00,VWS V14.01,2013-06-29 05:01:00,
2013-06-29 01:06:00,70.2,51.2,29.06,East,82,0.0,0.0,51,0.00,,SKC,0.00,VWS V14.01,2013-06-29 05:06:00,
2013-06-29 01:11:00,70.2,51.7,29.06,East,82,0.0,0.0,52,0.00,,SKC,0.00,VWS V14.01,2013-06-29 05:11:00,
2013-06-29 01:16:00,70.0,51.6,29.06,East,82,0.0,0.0,52,0.00,,SKC,0.00,VWS V14.01,2013-06-29 05:16:00,
2013-06-29 01:21:00,70.0,51.6,29.06,East,82,0.0,0.0,52,0.00,,SKC,0.00,VWS V14.01,2013-06-29 05:21:00,
2013-06-29 01:26:00,70.0,52.1,29.06,East,82,0.0,0.0,53,0.00,,SKC,0.00,VWS V14.01,2013-06-29 05:26:00,
2013-06-29 01:31:00,69.8,51.9,29.06,East,82,0.0,0.0,53,0.00,,SKC,0.00,VWS V14.01,2013-06-29 05:31:00,
2013-06-29 01:36:00,69.8,51.9,29.06,East,82,0.0,0.0,53,0.00,,SKC,0.00,VWS V14.01,2013-06-29 05:36:00,
2013-06-29 01:41:00,69.8,52.4,29.06,East,82,0.0,0.0,54,0.00,,SKC,0.00,VWS V14.01,2013-06-29 05:41:00,
2013-06-29 01:46:00,69.6,52.3,29.06,East,82,0.0,0.0,54,0.00,,SKC,0.00,VWS V14.01,2013-06-29 05:46:00,
2013-06-29 01:51:00,69.4,52.1,29.06,East,82,0.0,0.0,54,0.00,,SKC,0.00,VWS V14.01,2013-06-29 05:51:00,
2013-06-29 01:56:00,69.4,52.6,29.06,East,82,0.0,0.0,55,0.00,,SKC,0.00,VWS V14.01,2013-06-29 05:56:00,
2013-06-29 02:01:00,69.3,52.4,29.06,East,82,0.0,0.0,55,0.00,,SKC,0.00,VWS V14.01,2013-06-29 06:01:00,
2013-06-29 02:06:00,69.3,52.4,29.06,East,82,0.0,0.0,55,0.00,,SKC,0.00,VWS V14.01,2013-06-29 06:06:00,
2013-06-29 02:11:00,69.1,52.7,29.06,East,82,0.0,0.0,56,0.00,,SKC,0.00,VWS V14.01,2013-06-29 06:11:00,
2013-06-29 02:16:00,69.1,52.7,29.06,East,82,0.0,0.0,56,0.00,,SKC,0.00,VWS V14.01,2013-06-29 06:16:00,
2013-06-29 02:21:00,68.9,52.6,29.06,East,82,0.0,0.0,56,0.00,,SKC,0.00,VWS V14.01,2013-06-29 06:21:00,
2013-06-29 02:26:00,68.9,52.6,29.06,East,82,0.0,0.0,56,0.00,,SKC,0.00,VWS V14.01,2013-06-29 06:26:00,
2013-06-29 02:31:00,68.9,53.1,29.06,East,82,0.0,0.0,57,0.00,,SKC,0.00,VWS V14.01,2013-06-29 06:31:00,
2013-06-29 02:36:00,68.9,53.1,29.06,East,82,0.0,0.0,57,0.00,,SKC,0.00,VWS V14.01,2013-06-29 06:36:00,
2013-06-29 02:41:00,68.9,53.1,29.06,East,82,0.0,0.0,57,0.00,,SKC,0.00,VWS V14.01,2013-06-29 06:41:00,
2013-06-29 02:46:00,69.1,53.7,29.06,East,82,0.0,0.0,58,0.00,,SKC,0.00,VWS V14.01,2013-06-29 06:46:00,
2013-06-29 02:51:00,69.1,53.7,29.06,East,82,0.0,0.0,58,0.00,,SKC,0.00,VWS V14.01,2013-06-29 06:51:00,
2013-06-29 02:56:00,69.1,53.7,29.06,East,82,0.0,0.0,58,0.00,,SKC,0.00,VWS V14.01,2013-06-29 06:56:00,
2013-06-29 03:01:00,68.9,54.0,29.06,East,82,0.0,0.0,59,0.00,,SKC,0.00,VWS V14.01,2013-06-29 07:01:00,
2013-06-29 03:05:00,68.9,54.0,29.06,East,82,0.0,0.0,59,0.00,,SKC,0.00,VWS V14.01,2013-06-29 07:05:00,
2013-06-29 03:10:00,68.7,53.8,29.06,East,82,0.0,0.0,59,0.00,,SKC,0.00,VWS V14.01,2013-06-29 07:10:00,
2013-06-29 03:15:00,68.5,54.1,29.06,East,82,0.0,0.0,60,0.00,,SKC,0.00,VWS V14.01,2013-06-29 07:15:00,
2013-06-29 03:20:00,68.4,54.0,29.03,East,82,0.0,0.0,60,0.00,,SKC,0.00,VWS V14.01,2013-06-29 07:20:00,
2013-06-29 03:25:00,68.4,54.0,29.03,East,82,0.0,0.0,60,0.00,,SKC,0.00,VWS V14.01,2013-06-29 07:25:00,
2013-06-29 03:30:00,68.2,53.8,29.03,East,82,0.0,0.0,60,0.00,,SKC,0.00,VWS V14.01,2013-06-29 07:30:00,
2013-06-29 03:35:00,68.2,54.7,29.06,East,82,0.0,0.0,62,0.00,,SKC,0.00,VWS V14.01,2013-06-29 07:35:00,
2013-06-29 03:40:00,68.0,54.5,29.06,East,82,0.0,0.0,62,0.00,,SKC,0.00,VWS V14.01,2013-06-29 07:40:00,
2013-06-29 03:45:00,67.8,54.8,29.06,East,82,0.0,0.0,63,0.00,,SKC,0.00,VWS V14.01,2013-06-29 07:45:00,
2013-06-29 03:50:00,67.8,54.8,29.06,East,82,0.0,0.0,63,0.00,,SKC,0.00,VWS V14.01,2013-06-29 07:50:00,
2013-06-29 03:55:00,67.6,55.0,29.06,East,82,0.0,0.0,64,0.00,,SKC,0.00,VWS V14.01,2013-06-29 07:55:00,
2013-06-29 04:00:00,67.6,55.0,29.06,East,82,0.0,0.0,64,0.00,,SKC,0.00,VWS V14.01,2013-06-29 08:00:00,
2013-06-29 04:05:00,67.6,55.0,29.06,East,82,0.0,0.0,64,0.00,,SKC,0.00,VWS V14.01,2013-06-29 08:05:00,
2013-06-29 04:10:00,67.6,55.5,29.06,East,82,0.0,0.0,65,0.00,,SKC,0.00,VWS V14.01,2013-06-29 08:10:00,
2013-06-29 04:15:00,67.8,56.1,29.06,East,82,0.0,0.0,66,0.00,,SKC,0.00,VWS V14.01,2013-06-29 08:15:00,
2013-06-29 04:20:00,67.8,56.5,29.09,East,82,0.0,0.0,67,0.00,,SKC,0.00,VWS V14.01,2013-06-29 08:20:00,
2013-06-29 04:25:00,67.8,56.5,29.09,East,82,0.0,0.0,67,0.00,,SKC,0.00,VWS V14.01,2013-06-29 08:25:00,
2013-06-29 04:30:00,67.8,56.5,29.09,East,82,0.0,0.0,67,0.00,,SKC,0.00,VWS V14.01,2013-06-29 08:30:00,
2013-06-29 04:35:00,68.0,57.1,29.09,East,82,0.0,0.0,68,0.00,,SKC,0.00,VWS V14.01,2013-06-29 08:35:00,
2013-06-29 04:40:00,68.0,57.1,29.09,East,82,0.0,0.0,68,0.00,,SKC,0.00,VWS V14.01,2013-06-29 08:40:00,
2013-06-29 04:45:00,68.0,57.5,29.09,East,82,0.0,0.0,69,0.00,,SKC,0.00,VWS V14.01,2013-06-29 08:45:00,
2013-06-29 04:50:00,67.8,57.3,29.09,East,82,0.0,0.0,69,0.00,,SKC,0.00,VWS V14.01,2013-06-29 08:50:00,
2013-06-29 04:55:00,68.0,57.5,29.09,East,82,0.0,0.0,69,0.00,,SKC,0.00,VWS V14.01,2013-06-29 08:55:00,
2013-06-29 05:00:00,68.0,57.5,29.09,East,82,0.0,0.0,69,0.00,,SKC,0.00,VWS V14.01,2013-06-29 09:00:00,
2013-06-29 05:05:00,68.0,57.5,29.09,East,82,0.0,0.0,69,0.00,,SKC,0.00,VWS V14.01,2013-06-29 09:05:00,
2013-06-29 05:10:00,68.0,57.9,29.09,East,82,0.0,0.0,70,0.00,,SKC,0.00,VWS V14.01,2013-06-29 09:10:00,
2013-06-29 05:15:00,68.2,58.0,29.09,East,82,0.0,0.0,70,0.00,,SKC,0.00,VWS V14.01,2013-06-29 09:15:00,
2013-06-29 05:20:00,68.2,58.0,29.09,East,89,0.0,0.0,70,0.00,,SKC,0.00,VWS V14.01,2013-06-29 09:20:00,
2013-06-29 05:25:00,68.4,58.2,29.09,East,89,0.0,0.0,70,0.00,,SKC,0.00,VWS V14.01,2013-06-29 09:25:00,
2013-06-29 05:30:00,68.4,58.2,29.09,East,89,0.0,0.0,70,0.00,,SKC,0.00,VWS V14.01,2013-06-29 09:30:00,
2013-06-29 05:35:00,68.4,58.6,29.09,East,89,0.0,0.0,71,0.00,,SKC,0.00,VWS V14.01,2013-06-29 09:35:00,
2013-06-29 05:40:00,68.5,58.8,29.09,East,89,0.0,0.0,71,0.00,,SKC,0.00,VWS V14.01,2013-06-29 09:40:00,
2013-06-29 05:45:00,68.5,58.8,29.09,East,89,0.0,0.0,71,0.00,,SKC,0.00,VWS V14.01,2013-06-29 09:45:00,
2013-06-29 05:50:00,68.5,58.8,29.09,East,89,0.0,0.0,71,0.00,,SKC,0.00,VWS V14.01,2013-06-29 09:50:00,
2013-06-29 05:55:00,68.5,58.8,29.09,East,89,0.0,0.0,71,0.00,,SKC,0.00,VWS V14.01,2013-06-29 09:55:00,
2013-06-29 06:00:00,68.5,58.8,29.09,East,89,0.0,0.0,71,0.00,,SKC,0.00,VWS V14.01,2013-06-29 10:00:00,
2013-06-29 06:05:00,68.5,58.8,29.09,East,89,0.0,0.0,71,0.00,,SKC,0.00,VWS V14.01,2013-06-29 10:05:00,
2013-06-29 06:10:00,68.4,58.6,29.09,East,89,0.0,0.0,71,0.00,,SKC,0.00,VWS V14.01,2013-06-29 10:10:00,
2013-06-29 06:15:00,68.4,58.6,29.09,East,89,0.0,0.0,71,0.00,,SKC,0.00,VWS V14.01,2013-06-29 10:15:00,
2013-06-29 06:20:00,68.4,58.6,29.12,East,89,0.0,0.0,71,0.00,,SKC,0.00,VWS V14.01,2013-06-29 10:20:00,
2013-06-29 06:25:00,68.5,58.8,29.12,East,89,0.0,0.0,71,0.00,,SKC,0.00,VWS V14.01,2013-06-29 10:25:00,
2013-06-29 06:30:00,68.7,59.3,29.12,East,89,0.0,0.0,72,0.00,,SKC,0.00,VWS V14.01,2013-06-29 10:30:00,
2013-06-29 06:35:00,68.9,59.5,29.12,East,89,0.0,0.0,72,0.00,,SKC,0.00,VWS V14.01,2013-06-29 10:35:00,
2013-06-29 06:40:00,69.1,59.7,29.12,East,89,0.0,0.0,72,0.00,,SKC,0.00,VWS V14.01,2013-06-29 10:40:00,
2013-06-29 06:45:00,69.3,59.9,29.12,East,89,0.0,0.0,72,0.00,,SKC,0.00,VWS V14.01,2013-06-29 10:45:00,
2013-06-29 06:50:00,69.3,59.9,29.12,East,89,0.0,0.0,72,0.00,,SKC,0.00,VWS V14.01,2013-06-29 10:50:00,
2013-06-29 06:55:00,69.6,60.2,29.12,East,89,0.0,0.0,72,0.00,,SKC,0.00,VWS V14.01,2013-06-29 10:55:00,
2013-06-29 07:00:00,69.8,60.0,29.12,East,89,0.0,0.0,71,0.00,,SKC,0.00,VWS V14.01,2013-06-29 11:00:00,
2013-06-29 07:05:00,70.0,60.2,29.12,East,89,0.0,0.0,71,0.00,,SKC,0.00,VWS V14.01,2013-06-29 11:05:00,
2013-06-29 07:10:00,70.2,60.3,29.12,East,89,0.0,0.0,71,0.00,,SKC,0.00,VWS V14.01,2013-06-29 11:10:00,
2013-06-29 07:15:00,70.2,59.9,29.12,East,89,0.0,0.0,70,0.00,,SKC,0.00,VWS V14.01,2013-06-29 11:15:00,
2013-06-29 07:20:00,70.3,59.3,29.12,East,89,0.0,0.0,68,0.00,,SKC,0.00,VWS V14.01,2013-06-29 11:20:00,
2013-06-29 07:25:00,70.2,57.9,29.12,East,89,0.0,0.0,65,0.00,,SKC,0.00,VWS V14.01,2013-06-29 11:25:00,
2013-06-29 07:30:00,70.3,58.0,29.12,East,89,0.0,0.0,65,0.00,,SKC,0.00,VWS V14.01,2013-06-29 11:30:00,
2013-06-29 07:35:00,70.5,58.2,29.12,East,89,0.0,0.0,65,0.00,,SKC,0.00,VWS V14.01,2013-06-29 11:35:00,
2013-06-29 07:40:00,70.7,58.4,29.12,East,89,0.0,0.0,65,0.00,,SKC,0.00,VWS V14.01,2013-06-29 11:40:00,
2013-06-29 07:45:00,70.7,57.9,29.12,East,89,0.0,0.0,64,0.00,,SKC,0.00,VWS V14.01,2013-06-29 11:45:00,
2013-06-29 07:50:00,70.7,57.5,29.12,East,89,0.0,0.0,63,0.00,,SKC,0.00,VWS V14.01,2013-06-29 11:50:00,
2013-06-29 07:55:00,70.7,56.2,29.12,East,89,0.0,0.0,60,0.00,,SKC,0.00,VWS V14.01,2013-06-29 11:55:00,
2013-06-29 08:00:00,70.9,55.8,29.12,East,89,0.0,0.0,59,0.00,,SKC,0.00,VWS V14.01,2013-06-29 12:00:00,
2013-06-29 08:05:00,70.9,54.9,29.12,East,89,0.0,0.0,57,0.00,,SKC,0.00,VWS V14.01,2013-06-29 12:05:00,
2013-06-29 08:10:00,70.9,54.9,29.12,East,89,0.0,0.0,57,0.00,,SKC,0.00,VWS V14.01,2013-06-29 12:10:00,
2013-06-29 08:15:00,71.1,54.1,29.12,East,89,0.0,0.0,55,0.00,,SKC,0.00,VWS V14.01,2013-06-29 12:15:00,
2013-06-29 08:20:00,71.1,53.1,29.15,East,89,0.0,0.0,53,0.00,,SKC,0.00,VWS V14.01,2013-06-29 12:20:00,
2013-06-29 08:25:00,71.1,53.1,29.15,East,89,0.0,0.0,53,0.00,,SKC,0.00,VWS V14.01,2013-06-29 12:25:00,
2013-06-29 08:30:00,71.1,52.6,29.15,East,89,0.0,0.0,52,0.00,,SKC,0.00,VWS V14.01,2013-06-29 12:30:00,
2013-06-29 08:35:00,71.1,52.0,29.15,East,89,0.0,0.0,51,0.00,,SKC,0.00,VWS V14.01,2013-06-29 12:35:00,
2013-06-29 08:40:00,71.1,52.0,29.15,East,89,0.0,0.0,51,0.00,,SKC,0.00,VWS V14.01,2013-06-29 12:40:00,
2013-06-29 08:45:00,71.4,51.3,29.15,East,89,4.8,4.8,49,0.00,,SKC,0.00,VWS V14.01,2013-06-29 12:45:00,
2013-06-29 08:50:00,72.1,51.4,29.15,East,99,0.0,0.0,48,0.00,,SKC,0.00,VWS V14.01,2013-06-29 12:50:00,
2013-06-29 08:55:00,72.5,51.7,29.15,East,99,0.0,0.0,48,0.00,,SKC,0.00,VWS V14.01,2013-06-29 12:55:00,
2013-06-29 09:00:00,73.0,51.1,29.15,South,176,0.0,0.0,46,0.00,,SKC,0.00,VWS V14.01,2013-06-29 13:00:00,
2013-06-29 09:05:00,73.6,51.5,29.15,West,259,0.0,0.0,46,0.00,,SKC,0.00,VWS V14.01,2013-06-29 13:05:00,
2013-06-29 09:10:00,73.8,51.1,29.15,ESE,107,0.0,0.0,45,0.00,,SKC,0.00,VWS V14.01,2013-06-29 13:10:00,
2013-06-29 09:15:00,73.6,48.5,29.15,SE,145,0.0,0.0,41,0.00,,SKC,0.00,VWS V14.01,2013-06-29 13:15:00,
2013-06-29 09:20:00,73.8,48.6,29.15,SSW,200,0.0,0.0,41,0.00,,SKC,0.00,VWS V14.01,2013-06-29 13:20:00,
2013-06-29 09:25:00,73.9,48.8,29.15,SSW,201,0.0,0.0,41,0.00,,SKC,0.00,VWS V14.01,2013-06-29 13:25:00,
2013-06-29 09:30:00,74.1,47.6,29.15,SSE,162,5.6,5.6,39,0.00,,SKC,0.00,VWS V14.01,2013-06-29 13:30:00,
2013-06-29 09:35:00,73.8,47.3,29.15,SSE,155,0.0,0.0,39,0.00,,SKC,0.00,VWS V14.01,2013-06-29 13:35:00,
2013-06-29 09:40:00,73.4,47.6,29.15,SW,217,0.0,0.0,40,0.00,,SKC,0.00,VWS V14.01,2013-06-29 13:40:00,
2013-06-29 09:45:00,73.2,48.8,29.15,SE,135,0.0,0.0,42,0.00,,SKC,0.00,VWS V14.01,2013-06-29 13:45:00,
2013-06-29 09:50:00,73.2,48.8,29.15,SE,135,0.0,0.0,42,0.00,,SKC,0.00,VWS V14.01,2013-06-29 13:50:00,
2013-06-29 09:55:00,73.4,48.9,29.15,SE,135,0.0,0.0,42,0.00,,SKC,0.00,VWS V14.01,2013-06-29 13:55:00,
2013-06-29 10:00:00,73.6,49.1,29.15,SE,135,0.0,0.0,42,0.00,,SKC,0.00,VWS V14.01,2013-06-29 14:00:00,
2013-06-29 10:04:00,73.8,48.6,29.15,South,178,0.0,0.0,41,0.00,,SKC,0.00,VWS V14.01,2013-06-29 14:04:00,
2013-06-29 10:09:00,73.9,48.8,29.15,South,178,0.0,0.0,41,0.00,,SKC,0.00,VWS V14.01,2013-06-29 14:09:00,
2013-06-29 10:14:00,74.1,48.9,29.15,South,178,0.0,0.0,41,0.00,,SKC,0.00,VWS V14.01,2013-06-29 14:14:00,
2013-06-29 10:19:00,74.3,48.4,29.15,ESE,111,0.0,0.0,40,0.00,,SKC,0.00,VWS V14.01,2013-06-29 14:19:00,
2013-06-29 10:24:00,74.5,47.2,29.15,SSE,150,0.0,0.0,38,0.00,,SKC,0.00,VWS V14.01,2013-06-29 14:24:00,
2013-06-29 10:29:00,74.5,47.2,29.15,SSE,150,0.0,0.0,38,0.00,,SKC,0.00,VWS V14.01,2013-06-29 14:29:00,
2013-06-29 10:34:00,74.5,47.2,29.15,SSE,160,0.0,0.0,38,0.00,,SKC,0.00,VWS V14.01,2013-06-29 14:34:00,
2013-06-29 10:39:00,74.3,47.1,29.15,SSE,160,0.0,0.0,38,0.00,,SKC,0.00,VWS V14.01,2013-06-29 14:39:00,
2013-06-29 10:44:00,74.5,47.9,29.15,South,183,0.0,0.0,39,0.00,,SKC,0.00,VWS V14.01,2013-06-29 14:44:00,
2013-06-29 10:49:00,74.5,46.5,29.15,SSE,163,0.0,0.0,37,0.00,,SKC,0.00,VWS V14.01,2013-06-29 14:49:00,
2013-06-29 10:54:00,74.5,47.9,29.15,SSE,163,0.0,0.0,39,0.00,,SKC,0.00,VWS V14.01,2013-06-29 14:54:00,
2013-06-29 10:59:00,74.7,48.1,29.15,South,173,0.0,2.7,39,0.00,,SKC,0.00,VWS V14.01,2013-06-29 14:59:00,
2013-06-29 11:04:00,74.8,48.2,29.15,South,173,0.0,0.0,39,0.00,,SKC,0.00,VWS V14.01,2013-06-29 15:04:00,
2013-06-29 11:09:00,75.4,47.3,29.15,SE,125,0.0,0.0,37,0.00,,SKC,0.00,VWS V14.01,2013-06-29 15:09:00,
2013-06-29 11:14:00,76.3,48.1,29.15,WNW,290,5.6,5.6,37,0.00,,SKC,0.00,VWS V14.01,2013-06-29 15:14:00,
2013-06-29 11:19:00,76.6,46.2,29.15,SE,142,0.0,0.0,34,0.00,,SKC,0.00,VWS V14.01,2013-06-29 15:19:00,
2013-06-29 11:24:00,76.8,46.3,29.15,SW,232,0.0,0.0,34,0.00,,SKC,0.00,VWS V14.01,2013-06-29 15:24:00,
2013-06-29 11:29:00,77.2,45.1,29.15,ESE,107,4.8,4.8,32,0.00,,SKC,0.00,VWS V14.01,2013-06-29 15:29:00,
2013-06-29 11:34:00,77.5,45.4,29.15,SSE,164,0.0,2.7,32,0.00,,SKC,0.00,VWS V14.01,2013-06-29 15:34:00,
2013-06-29 11:39:00,78.1,45.0,29.15,East,93,0.0,2.7,31,0.00,,SKC,0.00,VWS V14.01,2013-06-29 15:39:00,
2013-06-29 11:44:00,78.1,45.0,29.15,SSW,207,4.0,4.0,31,0.00,,SKC,0.00,VWS V14.01,2013-06-29 15:44:00,
2013-06-29 11:49:00,78.3,45.2,29.15,ESE,113,0.0,3.6,31,0.00,,SKC,0.00,VWS V14.01,2013-06-29 15:49:00,
2013-06-29 11:54:00,78.4,45.3,29.15,SSW,201,0.0,0.0,31,0.00,,SKC,0.00,VWS V14.01,2013-06-29 15:54:00,
2013-06-29 11:59:00,79.2,45.1,29.15,ESE,113,0.0,3.6,30,0.00,,SKC,0.00,VWS V14.01,2013-06-29 15:59:00,
2013-06-29 12:04:00,79.5,45.4,29.15,SSE,157,0.0,0.0,30,0.00,,SKC,0.00,VWS V14.01,2013-06-29 16:04:00,
2013-06-29 12:09:00,80.1,45.9,29.15,SSE,148,0.0,2.7,30,0.00,,SKC,0.00,VWS V14.01,2013-06-29 16:09:00,
2013-06-29 12:14:00,80.2,45.1,29.15,East,91,0.0,0.0,29,0.00,,SKC,0.00,VWS V14.01,2013-06-29 16:14:00,
2013-06-29 12:19:00,80.2,46.0,29.15,East,84,0.0,0.0,30,0.00,,SKC,0.00,VWS V14.01,2013-06-29 16:19:00,
2013-06-29 12:24:00,80.2,45.1,29.15,NNW,327,7.2,7.2,29,0.00,,SKC,0.00,VWS V14.01,2013-06-29 16:24:00,
2013-06-29 12:29:00,80.4,43.4,29.15,WNW,285,0.0,0.0,27,0.00,,SKC,0.00,VWS V14.01,2013-06-29 16:29:00,
2013-06-29 12:34:00,80.4,43.4,29.15,SSE,151,0.0,0.0,27,0.00,,SKC,0.00,VWS V14.01,2013-06-29 16:34:00,
2013-06-29 12:39:00,80.6,43.6,29.15,NE,43,0.0,0.0,27,0.00,,SKC,0.00,VWS V14.01,2013-06-29 16:39:00,
2013-06-29 12:44:00,81.1,42.0,29.15,SSW,200,0.0,0.0,25,0.00,,SKC,0.00,VWS V14.01,2013-06-29 16:44:00,
2013-06-29 12:49:00,81.3,42.2,29.15,NNW,340,0.0,0.0,25,0.00,,SKC,0.00,VWS V14.01,2013-06-29 16:49:00,
2013-06-29 12:54:00,81.5,41.3,29.15,SE,142,0.0,0.0,24,0.00,,SKC,0.00,VWS V14.01,2013-06-29 16:54:00,
2013-06-29 12:59:00,81.7,41.4,29.15,SSE,167,0.0,3.1,24,0.00,,SKC,0.00,VWS V14.01,2013-06-29 16:59:00,
2013-06-29 13:04:00,82.0,41.7,29.15,SE,128,0.0,2.7,24,0.00,,SKC,0.00,VWS V14.01,2013-06-29 17:04:00,
2013-06-29 13:09:00,82.2,40.8,29.15,South,191,4.8,4.8,23,0.00,,SKC,0.00,VWS V14.01,2013-06-29 17:09:00,
2013-06-29 13:14:00,82.0,40.6,29.15,SE,144,4.0,4.0,23,0.00,,SKC,0.00,VWS V14.01,2013-06-29 17:14:00,
2013-06-29 13:19:00,81.9,41.6,29.15,NW,322,0.0,0.0,24,0.00,,SKC,0.00,VWS V14.01,2013-06-29 17:19:00,
2013-06-29 13:24:00,82.2,42.9,29.15,South,176,0.0,0.0,25,0.00,,SKC,0.00,VWS V14.01,2013-06-29 17:24:00,
2013-06-29 13:29:00,82.9,40.2,29.15,SSE,147,4.8,4.8,22,0.00,,SKC,0.00,VWS V14.01,2013-06-29 17:29:00,
2013-06-29 13:34:00,83.3,40.5,29.15,SSE,158,0.0,2.7,22,0.00,,SKC,0.00,VWS V14.01,2013-06-29 17:34:00,
2013-06-29 13:39:00,83.3,40.5,29.15,SSE,166,0.0,2.2,22,0.00,,SKC,0.00,VWS V14.01,2013-06-29 17:39:00,
2013-06-29 13:44:00,83.1,39.2,29.15,SE,126,0.0,0.0,21,0.00,,SKC,0.00,VWS V14.01,2013-06-29 17:44:00,
2013-06-29 13:49:00,82.9,40.2,29.15,South,183,0.0,0.0,22,0.00,,SKC,0.00,VWS V14.01,2013-06-29 17:49:00,
2013-06-29 13:54:00,82.8,38.9,29.15,ESE,104,0.0,0.0,21,0.00,,SKC,0.00,VWS V14.01,2013-06-29 17:54:00,
2013-06-29 13:59:00,82.8,40.1,29.15,SSE,164,4.0,4.0,22,0.00,,SKC,0.00,VWS V14.01,2013-06-29 17:59:00,
2013-06-29 14:04:00,83.1,39.2,29.15,South,179,0.0,0.0,21,0.00,,SKC,0.00,VWS V14.01,2013-06-29 18:04:00,
2013-06-29 14:09:00,83.7,38.4,29.15,SE,145,0.0,0.0,20,0.00,,SKC,0.00,VWS V14.01,2013-06-29 18:09:00,
2013-06-29 14:14:00,84.0,38.7,29.15,ESE,117,0.0,0.0,20,0.00,,SKC,0.00,VWS V14.01,2013-06-29 18:14:00,
2013-06-29 14:19:00,84.4,39.0,29.15,East,87,7.2,7.2,20,0.00,,SKC,0.00,VWS V14.01,2013-06-29 18:19:00,
2013-06-29 14:24:00,84.9,38.1,29.15,SSW,196,0.0,2.7,19,0.00,,SKC,0.00,VWS V14.01,2013-06-29 18:24:00,
2013-06-29 14:29:00,85.3,38.4,29.15,SSE,158,0.0,0.0,19,0.00,,SKC,0.00,VWS V14.01,2013-06-29 18:29:00,
2013-06-29 14:34:00,85.1,38.2,29.15,South,169,4.8,4.8,19,0.00,,SKC,0.00,VWS V14.01,2013-06-29 18:34:00,
2013-06-29 14:39:00,84.9,38.1,29.15,WSW,257,7.2,7.2,19,0.00,,SKC,0.00,VWS V14.01,2013-06-29 18:39:00,
2013-06-29 14:44:00,84.2,37.5,29.15,SE,143,6.4,6.4,19,0.00,,SKC,0.00,VWS V14.01,2013-06-29 18:44:00,
2013-06-29 14:49:00,83.8,38.5,29.15,West,277,0.0,0.0,20,0.00,,SKC,0.00,VWS V14.01,2013-06-29 18:49:00,
2013-06-29 14:54:00,84.4,37.7,29.15,SE,144,4.8,4.8,19,0.00,,SKC,0.00,VWS V14.01,2013-06-29 18:54:00,
2013-06-29 14:59:00,84.7,38.0,29.15,SW,218,0.0,0.0,19,0.00,,SKC,0.00,VWS V14.01,2013-06-29 18:59:00,
2013-06-29 15:04:00,85.1,38.2,29.15,SW,235,4.0,4.0,19,0.00,,SKC,0.00,VWS V14.01,2013-06-29 19:04:00,
2013-06-29 15:09:00,85.3,38.4,29.15,SSW,198,0.0,0.0,19,0.00,,SKC,0.00,VWS V14.01,2013-06-29 19:09:00,
2013-06-29 15:14:00,85.3,38.4,29.15,SSE,163,0.0,0.0,19,0.00,,SKC,0.00,VWS V14.01,2013-06-29 19:14:00,
2013-06-29 15:19:00,85.5,37.2,29.15,North,11,0.0,3.6,18,0.00,,SKC,0.00,VWS V14.01,2013-06-29 19:19:00,
2013-06-29 15:24:00,85.6,38.7,29.15,SSW,209,0.0,0.0,19,0.00,,SKC,0.00,VWS V14.01,2013-06-29 19:24:00,
2013-06-29 15:29:00,85.6,38.7,29.15,SE,133,0.0,0.0,19,0.00,,SKC,0.00,VWS V14.01,2013-06-29 19:29:00,
2013-06-29 15:34:00,85.5,37.2,29.15,South,182,4.8,4.8,18,0.00,,SKC,0.00,VWS V14.01,2013-06-29 19:34:00,
2013-06-29 15:39:00,85.3,38.4,29.15,SE,141,4.0,4.0,19,0.00,,SKC,0.00,VWS V14.01,2013-06-29 19:39:00,
2013-06-29 15:44:00,84.6,37.8,29.15,South,179,4.8,4.8,19,0.00,,SKC,0.00,VWS V14.01,2013-06-29 19:44:00,
2013-06-29 15:49:00,84.0,37.4,29.15,SSE,149,0.0,0.0,19,0.00,,SKC,0.00,VWS V14.01,2013-06-29 19:49:00,
2013-06-29 15:54:00,84.0,37.4,29.15,WNW,284,0.0,0.0,19,0.00,,SKC,0.00,VWS V14.01,2013-06-29 19:54:00,
2013-06-29 15:59:00,84.4,37.7,29.15,South,169,4.0,4.0,19,0.00,,SKC,0.00,VWS V14.01,2013-06-29 19:59:00,
2013-06-29 16:04:00,84.7,36.6,29.15,ENE,77,0.0,0.0,18,0.00,,SKC,0.00,VWS V14.01,2013-06-29 20:04:00,
2013-06-29 16:09:00,84.7,36.6,29.15,ESE,104,4.8,4.8,18,0.00,,SKC,0.00,VWS V14.01,2013-06-29 20:09:00,
2013-06-29 16:14:00,84.7,36.6,29.15,WNW,287,0.0,0.0,18,0.00,,SKC,0.00,VWS V14.01,2013-06-29 20:14:00,
2013-06-29 16:19:00,84.7,36.6,29.15,SSE,151,0.0,0.0,18,0.00,,SKC,0.00,VWS V14.01,2013-06-29 20:19:00,
2013-06-29 16:24:00,85.3,37.0,29.15,SSW,207,0.0,3.1,18,0.00,,SKC,0.00,VWS V14.01,2013-06-29 20:24:00,
2013-06-29 16:28:00,85.3,37.0,29.15,West,260,4.8,4.8,18,0.00,,SKC,0.00,VWS V14.01,2013-06-29 20:28:00,
2013-06-29 16:33:00,85.3,37.0,29.15,SSE,157,4.8,4.8,18,0.00,,SKC,0.00,VWS V14.01,2013-06-29 20:33:00,
2013-06-29 16:38:00,85.3,37.0,29.15,SE,146,5.6,5.6,18,0.00,,SKC,0.00,VWS V14.01,2013-06-29 20:38:00,
2013-06-29 16:43:00,85.1,36.9,29.15,WNW,285,0.0,3.6,18,0.00,,SKC,0.00,VWS V14.01,2013-06-29 20:43:00,
2013-06-29 16:48:00,85.1,36.9,29.15,East,87,0.0,0.0,18,0.00,,SKC,0.00,VWS V14.01,2013-06-29 20:48:00,
2013-06-29 16:53:00,85.5,37.2,29.15,SW,220,0.0,0.0,18,0.00,,SKC,0.00,VWS V14.01,2013-06-29 20:53:00,
2013-06-29 16:58:00,85.6,37.3,29.15,SW,214,4.8,4.8,18,0.00,,SKC,0.00,VWS V14.01,2013-06-29 20:58:00,
2013-06-29 17:03:00,85.5,37.2,29.15,ESE,123,0.0,0.0,18,0.00,,SKC,0.00,VWS V14.01,2013-06-29 21:03:00,
2013-06-29 17:08:00,85.6,37.3,29.15,WNW,291,4.8,4.8,18,0.00,,SKC,0.00,VWS V14.01,2013-06-29 21:08:00,
2013-06-29 17:13:00,85.6,37.3,29.15,West,279,0.0,2.2,18,0.00,,SKC,0.00,VWS V14.01,2013-06-29 21:13:00,
2013-06-29 17:18:00,85.8,37.5,29.15,SSW,206,0.0,0.0,18,0.00,,SKC,0.00,VWS V14.01,2013-06-29 21:18:00,
2013-06-29 17:23:00,85.8,37.5,29.15,SE,141,0.0,3.1,18,0.00,,SKC,0.00,VWS V14.01,2013-06-29 21:23:00,
2013-06-29 17:28:00,85.8,37.5,29.15,ESE,105,0.0,0.0,18,0.00,,SKC,0.00,VWS V14.01,2013-06-29 21:28:00,
2013-06-29 17:33:00,86.0,37.6,29.15,NW,324,0.0,0.0,18,0.00,,SKC,0.00,VWS V14.01,2013-06-29 21:33:00,
2013-06-29 17:38:00,86.0,37.6,29.15,SSE,158,0.0,2.7,18,0.00,,SKC,0.00,VWS V14.01,2013-06-29 21:38:00,
2013-06-29 17:43:00,86.0,37.6,29.15,ESE,102,0.0,0.0,18,0.00,,SKC,0.00,VWS V14.01,2013-06-29 21:43:00,
2013-06-29 17:48:00,85.8,37.5,29.15,South,174,0.0,0.0,18,0.00,,SKC,0.00,VWS V14.01,2013-06-29 21:48:00,
2013-06-29 17:53:00,85.6,38.7,29.15,WSW,249,0.0,0.0,19,0.00,,SKC,0.00,VWS V14.01,2013-06-29 21:53:00,
2013-06-29 17:58:00,85.5,38.5,29.15,SE,136,4.8,4.8,19,0.00,,SKC,0.00,VWS V14.01,2013-06-29 21:58:00,
2013-06-29 18:03:00,84.6,37.8,29.15,WSW,245,0.0,0.0,19,0.00,,SKC,0.00,VWS V14.01,2013-06-29 22:03:00,
2013-06-29 18:08:00,83.8,37.2,29.15,SSE,162,0.0,0.0,19,0.00,,SKC,0.00,VWS V14.01,2013-06-29 22:08:00,
2013-06-29 18:13:00,83.3,36.8,29.15,South,175,0.0,2.2,19,0.00,,SKC,0.00,VWS V14.01,2013-06-29 22:13:00,
2013-06-29 18:18:00,83.3,38.1,29.18,South,175,0.0,0.0,20,0.00,,SKC,0.00,VWS V14.01,2013-06-29 22:18:00,
2013-06-29 18:23:00,83.7,38.4,29.18,SW,232,0.0,0.0,20,0.00,,SKC,0.00,VWS V14.01,2013-06-29 22:23:00,
2013-06-29 18:28:00,83.5,38.2,29.18,NNE,18,0.0,0.0,20,0.00,,SKC,0.00,VWS V14.01,2013-06-29 22:28:00,
2013-06-29 18:33:00,83.3,36.8,29.18,SE,130,0.0,2.2,19,0.00,,SKC,0.00,VWS V14.01,2013-06-29 22:33:00,
2013-06-29 18:38:00,82.9,37.8,29.18,SE,129,0.0,0.0,20,0.00,,SKC,0.00,VWS V14.01,2013-06-29 22:38:00,
2013-06-29 18:43:00,82.6,37.5,29.18,SSE,168,0.0,0.0,20,0.00,,SKC,0.00,VWS V14.01,2013-06-29 22:43:00,
2013-06-29 18:48:00,82.2,37.2,29.18,ENE,77,0.0,0.0,20,0.00,,SKC,0.00,VWS V14.01,2013-06-29 22:48:00,
2013-06-29 18:53:00,82.0,37.0,29.18,SSW,195,0.0,0.0,20,0.00,,SKC,0.00,VWS V14.01,2013-06-29 22:53:00,
2013-06-29 18:58:00,81.7,36.8,29.18,SE,135,0.0,0.0,20,0.00,,SKC,0.00,VWS V14.01,2013-06-29 22:58:00,
2013-06-29 19:03:00,81.5,37.8,29.18,West,277,0.0,0.0,21,0.00,,SKC,0.00,VWS V14.01,2013-06-29 23:03:00,
2013-06-29 19:08:00,81.1,37.5,29.18,SW,222,0.0,0.0,21,0.00,,SKC,0.00,VWS V14.01,2013-06-29 23:08:00,
2013-06-29 19:13:00,81.1,38.7,29.18,South,171,4.8,4.8,22,0.00,,SKC,0.00,VWS V14.01,2013-06-29 23:13:00,
2013-06-29 19:18:00,81.0,42.9,29.18,SSW,197,0.0,0.0,26,0.00,,SKC,0.00,VWS V14.01,2013-06-29 23:18:00,
2013-06-29 19:23:00,80.6,43.6,29.18,SSE,154,0.0,0.0,27,0.00,,SKC,0.00,VWS V14.01,2013-06-29 23:23:00,
2013-06-29 19:28:00,80.4,44.4,29.18,SSE,168,0.0,0.0,28,0.00,,SKC,0.00,VWS V14.01,2013-06-29 23:28:00,
2013-06-29 19:33:00,80.1,45.0,29.18,SSE,160,0.0,0.0,29,0.00,,SKC,0.00,VWS V14.01,2013-06-29 23:33:00,
2013-06-29 19:38:00,80.1,45.0,29.18,SSE,160,0.0,0.0,29,0.00,,SKC,0.00,VWS V14.01,2013-06-29 23:38:00,
2013-06-29 19:43:00,79.9,45.7,29.18,SSE,160,0.0,0.0,30,0.00,,SKC,0.00,VWS V14.01,2013-06-29 23:43:00,
2013-06-29 19:48:00,79.5,45.4,29.18,SSE,160,0.0,0.0,30,0.00,,SKC,0.00,VWS V14.01,2013-06-29 23:48:00,
2013-06-29 19:53:00,79.2,45.1,29.18,SSW,192,0.0,0.0,30,0.00,,SKC,0.00,VWS V14.01,2013-06-29 23:53:00,
2013-06-29 19:58:00,78.8,44.8,29.18,SSW,192,0.0,0.0,30,0.00,,SKC,0.00,VWS V14.01,2013-06-29 23:58:00,
2013-06-29 20:03:00,78.6,45.5,29.18,SSW,192,0.0,0.0,31,0.00,,SKC,0.00,VWS V14.01,2013-06-30 00:03:00,
2013-06-29 20:08:00,78.4,45.3,29.21,SSW,193,0.0,0.0,31,0.00,,SKC,0.00,VWS V14.01,2013-06-30 00:08:00,
2013-06-29 20:13:00,78.1,45.0,29.21,West,270,0.0,0.0,31,0.00,,SKC,0.00,VWS V14.01,2013-06-30 00:13:00,
2013-06-29 20:18:00,77.5,45.4,29.21,West,270,0.0,0.0,32,0.00,,SKC,0.00,VWS V14.01,2013-06-30 00:18:00,
2013-06-29 20:23:00,77.2,45.1,29.21,West,270,0.0,0.0,32,0.00,,SKC,0.00,VWS V14.01,2013-06-30 00:23:00,
2013-06-29 20:28:00,76.8,45.6,29.21,West,270,0.0,0.0,33,0.00,,SKC,0.00,VWS V14.01,2013-06-30 00:28:00,
2013-06-29 20:33:00,76.6,45.4,29.21,West,270,0.0,0.0,33,0.00,,SKC,0.00,VWS V14.01,2013-06-30 00:33:00,
2013-06-29 20:38:00,76.3,45.9,29.21,West,270,0.0,0.0,34,0.00,,SKC,0.00,VWS V14.01,2013-06-30 00:38:00,
2013-06-29 20:43:00,76.1,46.5,29.21,West,270,0.0,0.0,35,0.00,,SKC,0.00,VWS V14.01,2013-06-30 00:43:00,
2013-06-29 20:48:00,75.7,46.9,29.21,NNW,331,0.0,0.0,36,0.00,,SKC,0.00,VWS V14.01,2013-06-30 00:48:00,
2013-06-29 20:53:00,75.4,47.3,29.21,NNW,331,0.0,0.0,37,0.00,,SKC,0.00,VWS V14.01,2013-06-30 00:53:00,
2013-06-29 20:58:00,75.2,47.9,29.21,NNW,331,0.0,0.0,38,0.00,,SKC,0.00,VWS V14.01,2013-06-30 00:58:00,
2013-06-29 21:03:00,74.8,48.2,29.21,NNW,331,0.0,0.0,39,0.00,,SKC,0.00,VWS V14.01,2013-06-30 01:03:00,
2013-06-29 21:08:00,74.7,48.1,29.21,NNW,331,0.0,0.0,39,0.00,,SKC,0.00,VWS V14.01,2013-06-30 01:08:00,
2013-06-29 21:13:00,74.3,48.4,29.21,NNW,331,0.0,0.0,40,0.00,,SKC,0.00,VWS V14.01,2013-06-30 01:13:00,
2013-06-29 21:18:00,74.1,48.9,29.21,NNW,331,0.0,0.0,41,0.00,,SKC,0.00,VWS V14.01,2013-06-30 01:18:00,
2013-06-29 21:23:00,73.8,48.6,29.23,NNW,331,0.0,0.0,41,0.00,,SKC,0.00,VWS V14.01,2013-06-30 01:23:00,
2013-06-29 21:28:00,73.6,49.1,29.23,NNW,331,0.0,0.0,42,0.00,,SKC,0.00,VWS V14.01,2013-06-30 01:28:00,
2013-06-29 21:33:00,73.4,48.9,29.23,NNW,331,0.0,0.0,42,0.00,,SKC,0.00,VWS V14.01,2013-06-30 01:33:00,
2013-06-29 21:38:00,73.0,49.2,29.23,NNW,331,0.0,0.0,43,0.00,,SKC,0.00,VWS V14.01,2013-06-30 01:38:00,
2013-06-29 21:43:00,72.9,49.1,29.23,NNW,331,0.0,0.0,43,0.00,,SKC,0.00,VWS V14.01,2013-06-30 01:43:00,
2013-06-29 21:48:00,72.7,49.5,29.23,NNW,331,0.0,0.0,44,0.00,,SKC,0.00,VWS V14.01,2013-06-30 01:48:00,
2013-06-29 21:53:00,72.3,49.2,29.23,NNW,331,0.0,0.0,44,0.00,,SKC,0.00,VWS V14.01,2013-06-30 01:53:00,
2013-06-29 21:58:00,72.1,49.7,29.23,NNW,331,0.0,0.0,45,0.00,,SKC,0.00,VWS V14.01,2013-06-30 01:58:00,
2013-06-29 22:03:00,71.8,49.3,29.23,NNW,331,0.0,0.0,45,0.00,,SKC,0.00,VWS V14.01,2013-06-30 02:03:00,
2013-06-29 22:08:00,71.6,49.8,29.23,NNW,331,0.0,0.0,46,0.00,,SKC,0.00,VWS V14.01,2013-06-30 02:08:00,
2013-06-29 22:13:00,71.6,52.5,29.23,NNW,331,0.0,0.0,51,0.00,,SKC,0.00,VWS V14.01,2013-06-30 02:13:00,
2013-06-29 22:18:00,71.2,51.7,29.23,NNW,331,0.0,0.0,50,0.00,,SKC,0.00,VWS V14.01,2013-06-30 02:18:00,
2013-06-29 22:23:00,71.1,51.5,29.23,NNW,331,0.0,0.0,50,0.00,,SKC,0.00,VWS V14.01,2013-06-30 02:23:00,
2013-06-29 22:28:00,70.9,51.3,29.23,NNW,331,0.0,0.0,50,0.00,,SKC,0.00,VWS V14.01,2013-06-30 02:28:00,
2013-06-29 22:33:00,70.9,51.9,29.23,NNW,331,0.0,0.0,51,0.00,,SKC,0.00,VWS V14.01,2013-06-30 02:33:00,
2013-06-29 22:38:00,70.7,51.7,29.23,NNW,331,0.0,0.0,51,0.00,,SKC,0.00,VWS V14.01,2013-06-30 02:38:00,
2013-06-29 22:43:00,70.5,52.1,29.23,NNW,331,0.0,0.0,52,0.00,,SKC,0.00,VWS V14.01,2013-06-30 02:43:00,
2013-06-29 22:48:00,70.5,52.1,29.23,NNW,331,0.0,0.0,52,0.00,,SKC,0.00,VWS V14.01,2013-06-30 02:48:00,
2013-06-29 22:53:00,70.3,52.4,29.23,NNW,331,0.0,0.0,53,0.00,,SKC,0.00,VWS V14.01,2013-06-30 02:53:00,
2013-06-29 22:58:00,70.3,52.4,29.23,NNW,331,0.0,0.0,53,0.00,,SKC,0.00,VWS V14.01,2013-06-30 02:58:00,
2013-06-29 23:03:00,70.2,52.2,29.23,NNW,331,0.0,0.0,53,0.00,,SKC,0.00,VWS V14.01,2013-06-30 03:03:00,
2013-06-29 23:08:00,70.0,52.6,29.23,NNW,331,0.0,0.0,54,0.00,,SKC,0.00,VWS V14.01,2013-06-30 03:08:00,
2013-06-29 23:13:00,69.8,52.4,29.23,NNW,331,0.0,0.0,54,0.00,,SKC,0.00,VWS V14.01,2013-06-30 03:13:00,
2013-06-29 23:18:00,69.6,52.8,29.23,NNW,331,0.0,0.0,55,0.00,,SKC,0.00,VWS V14.01,2013-06-30 03:18:00,
2013-06-29 23:23:00,69.4,52.6,29.23,NNW,331,0.0,0.0,55,0.00,,SKC,0.00,VWS V14.01,2013-06-30 03:23:00,
2013-06-29 23:28:00,69.3,52.9,29.23,NNW,331,0.0,0.0,56,0.00,,SKC,0.00,VWS V14.01,2013-06-30 03:28:00,
2013-06-29 23:33:00,69.3,52.9,29.23,NNW,331,0.0,0.0,56,0.00,,SKC,0.00,VWS V14.01,2013-06-30 03:33:00,
2013-06-29 23:37:00,69.3,53.4,29.23,NNW,331,0.0,0.0,57,0.00,,SKC,0.00,VWS V14.01,2013-06-30 03:37:00,
2013-06-29 23:42:00,69.1,53.2,29.23,NNW,331,0.0,0.0,57,0.00,,SKC,0.00,VWS V14.01,2013-06-30 03:42:00,
2013-06-29 23:47:00,69.1,53.2,29.23,NNW,331,0.0,0.0,57,0.00,,SKC,0.00,VWS V14.01,2013-06-30 03:47:00,
2013-06-29 23:52:00,68.9,53.5,29.26,NNW,331,0.0,0.0,58,0.00,,SKC,0.00,VWS V14.01,2013-06-30 03:52:00,
2013-06-29 23:57:00,68.9,53.5,29.26,NNW,331,0.0,0.0,58,0.00,,SKC,0.00,VWS V14.01,2013-06-30 03:57:00,